Temp
5 5 5 5 6 6 6 6 6 6 7 7 7 8 8 8 8 9 9 10 10 11 11 11 12 11 11 11 11 10 9 11 11 10 11 11 11 11 10 11 11 12 12 12 11
5 5 5 5 5 5 5 5 6 6 6 6 7 7 7 8 8 8 9 9 9 10 10 10 10 10 10 10 10 10 9 10 9 9 9 9 10 9 10 11 11 11 11 11 11
5 5 4 4 5 5 5 5 5 5 5 6 6 7 7 7 8 8 8 8 9 9 8 9 9 9 9 9 9 8 9 8 9 9 9 8 9 8 10 9 11 11 11 11 11
4 4 4 4 4 4 4 4 4 4 5 5 5 6 6 6 6 7 7 7 7 7 8 8 8 8 8 8 8 8 9 9 8 9 8 8 8 9 9 9 10 10 11 10 10
4 4 4 4 3 3 4 4 4 4 4 4 5 5 5 6 6 6 7 7 7 7 7 7 7 7 7 8 7 7 8 8 9 9 8 8 8 8 8 8 9 10 10 10 9
3 3 3 3 3 3 3 3 4 4 4 4 4 4 5 5 6 6 6 7 7 7 6 6 6 6 6 7 7 6 8 8 8 9 8 8 8 7 8 8 9 9 9 9 9
2 2 2 2 2 2 2 3 3 3 3 3 3 4 4 6 5 5 6 6 6 6 6 6 6 5 6 6 6 7 7 6 7 9 7 8 7 8 8 8 8 8 8 8 9
1 0 2 1 2 2 2 2 2 2 2 3 3 3 4 5 5 5 5 5 5 5 5 5 5 5 5 5 6 6 5 6 7 8 8 8 8 9 8 8 8 8 8 8 8
1 1 0 -0 1 1 1 2 1 1 2 2 2 2 3 4 5 5 5 5 5 5 5 5 5 5 5 5 5 5 7 8 7 6 7 6 8 9 8 8 7 8 8 8 8
1 0 -0 -0 1 -0 -0 -0 -0 1 1 1 2 2 3 3 4 4 4 4 4 4 4 4 4 4 5 4 7 8 7 7 6 7 6 7 7 7 7 7 7 6 7 8 8
0 0 0 -1 -0 -0 -0 -0 0 0 1 1 2 2 3 3 4 3 3 3 3 3 3 4 3 3 6 4 5 5 6 6 6 6 6 6 7 7 7 6 6 6 6 7 7
0 0 -0 -0 1 -1 -1 -0 -0 -0 1 2 2 3 3 2 3 3 3 3 3 3 3 3 2 3 3 4 3 4 4 5 6 5 4 5 6 7 6 6 6 7 7 7 7
-0 -0 -0 -0 -0 -1 -1 -1 -1 -1 -0 2 2 3 3 3 3 4 3 2 2 1 2 2 4 3 3 2 3 3 4 5 5 5 4 5 6 7 7 7 7 8 8 7 8
-0 -0 -1 -1 -1 -1 -1 -1 -2 -2 -1 -1 2 2 3 3 3 4 4 2 3 2 1 1 1 2 2 2 2 3 4 2 3 3 5 4 7 8 8 7 6 8 8 8 8
-2 -1 -2 -2 -1 -2 -1 -1 -2 -2 -1 0 1 2 2 2 2 2 3 3 3 -0 1 2 1 2 2 2 2 2 2 2 2 3 4 4 4 9 7 8 7 6 7 8 8
-2 -1 -1 -1 -2 -2 -2 -3 -3 -4 -2 -1 -0 0 0 1 1 0 0 2 2 1 -1 -0 0 -0 1 1 2 1 1 1 1 3 4 5 6 8 9 6 6 6 5 6 6
-1 -1 -2 -2 -3 -3 -3 -3 -4 -3 -1 -1 -1 -1 0 1 0 -1 -1 0 -0 -1 -0 0 -0 -0 -0 0 1 0 1 4 4 4 5 5 5 7 7 5 5 4 6 6 7
-3 -4 -4 -4 -5 -4 -4 -5 -4 -2 -2 -1 -2 -1 -1 -1 -2 -1 -1 -1 -1 -1 -0 1 2 1 1 -0 1 1 1 3 3 5 7 2 4 6 4 4 3 4 4 5 5
-5 -5 -4 -5 -5 -5 -5 -6 -3 -3 -3 -2 -2 -2 -2 -2 -2 -2 -2 -2 -1 -1 -0 0 1 -0 -0 -1 -0 1 0 1 -1 -1 -1 2 4 4 3 3 2 2 3 4 4
-6 -5 -5 -5 -5 -6 -6 -6 -5 -3 -2 -2 -2 -2 -2 -2 -2 -1 -2 -2 -3 -2 -1 -2 -0 -1 -1 -1 -0 0 -1 -1 -2 -0 1 5 4 4 3 1 2 3 2 3 3
-6 -5 -6 -6 -6 -6 -6 -6 -6 -5 -4 -3 -3 -3 -3 -3 -3 -3 -3 -3 -3 -3 -3 -3 -3 -1 -2 -0 -0 -0 -0 -1 -1 -2 0 3 4 4 2 0 -1 0 2 2 2
-7 -7 -7 -7 -7 -7 -6 -6 -6 -6 -5 -4 -4 -4 -4 -4 -4 -4 -3 -4 -3 -3 -4 -3 -4 -3 -1 -2 -2 -2 -1 -2 -2 -0 -2 -2 0 2 0 -1 -0 -1 -1 0 1
-8 -9 -8 -8 -7 -7 -7 -6 -7 -6 -6 -5 -5 -5 -5 -5 -5 -5 -5 -5 -4 -4 -5 -5 -4 -3 -1 -2 -3 -2 -3 -3 -3 -4 -3 -2 -0 0 -1 -0 0 -1 1 1 1
-9 -9 -8 -8 -7 -6 -7 -6 -6 -6 -6 -6 -6 -5 -6 -6 -6 -5 -6 -6 -6 -6 -5 -5 -5 -4 -3 -1 -3 -3 -3 -3 -3 -3 -2 -1 -1 -1 -1 -0 -1 -3 -0 -0 -0
-9 -9 -8 -8 -7 -7 -7 -7 -7 -7 -7 -7 -7 -6 -7 -7 -6 -6 -6 -6 -7 -7 -6 -6 -6 -6 -5 -5 -5 -5 -4 -4 -3 -3 -3 -2 -2 -1 -1 -1 -2 -3 -2 -2 -1
-10 -9 -8 -8 -7 -8 -7 -7 -7 -8 -7 -6 -6 -6 -7 -8 -7 -7 -7 -8 -8 -8 -7 -6 -7 -7 -6 -5 -6 -6 -5 -5 -5 -4 -3 -3 -3 -1 -3 -3 -4 -4 -4 -3 -3
-9 -8 -8 -8 -8 -8 -8 -8 -8 -8 -8 -8 -9 -8 -8 -8 -7 -7 -7 -8 -8 -8 -8 -8 -8 -7 -6 -5 -5 -6 -5 -5 -4 -4 -3 -4 -2 -3 -3 -3 -4 -4 -4 -5 -3
Height
3141 3143 3146 3148 3149 3150 3151 3152 3154 3154 3155 3155 3156 3157 3157 3158 3158 3157 3157 3158 3157 3156 3156 3156 3157 3156 3156 3156 3157 3157 3160 3159 3158 3158 3159 3154 3156 3158 3161 3159 3163 3163 3165 3168 3169
3134 3137 3139 3141 3143 3145 3146 3147 3149 3149 3150 3150 3151 3151 3152 3153 3154 3153 3154 3153 3153 3152 3152 3152 3152 3152 3152 3152 3153 3153 3155 3156 3154 3154 3155 3153 3153 3155 3157 3156 3158 3161 3163 3164 3166
3129 3131 3133 3135 3137 3138 3139 3142 3143 3144 3144 3145 3145 3146 3147 3148 3150 3148 3149 3148 3148 3148 3149 3149 3149 3149 3149 3148 3148 3147 3150 3149 3149 3148 3149 3150 3149 3151 3152 3152 3155 3158 3159 3160 3162
3122 3125 3127 3129 3131 3132 3133 3135 3137 3138 3139 3139 3140 3140 3141 3143 3148 3143 3143 3144 3144 3144 3145 3145 3146 3146 3146 3146 3145 3145 3144 3145 3146 3143 3145 3146 3145 3145 3146 3151 3152 3154 3154 3157 3158
3115 3118 3120 3123 3124 3126 3127 3128 3130 3131 3133 3134 3133 3134 3135 3137 3143 3139 3140 3140 3141 3141 3141 3141 3142 3141 3142 3140 3141 3139 3141 3138 3139 3139 3140 3140 3141 3142 3141 3144 3146 3148 3151 3153 3154
3108 3111 3114 3116 3118 3119 3120 3121 3124 3126 3127 3127 3128 3128 3129 3130 3136 3135 3135 3135 3135 3136 3136 3136 3137 3137 3136 3137 3137 3134 3134 3134 3134 3133 3133 3135 3136 3134 3137 3137 3140 3143 3146 3149 3151
3099 3103 3107 3110 3112 3113 3114 3115 3117 3120 3121 3121 3122 3121 3120 3129 3127 3128 3129 3130 3130 3131 3131 3130 3131 3134 3131 3132 3131 3130 3130 3129 3128 3129 3127 3130 3129 3126 3133 3131 3134 3137 3140 3143 3145
3091 3094 3099 3102 3105 3107 3109 3110 3112 3113 3114 3115 3116 3115 3110 3124 3121 3123 3121 3124 3124 3126 3125 3124 3124 3127 3127 3128 3127 3128 3126 3126 3126 3124 3123 3125 3119 3127 3127 3126 3129 3132 3134 3136 3138
3083 3086 3091 3095 3099 3100 3102 3103 3105 3105 3106 3108 3110 3110 3109 3113 3114 3115 3116 3117 3117 3119 3119 3119 3119 3120 3123 3126 3126 3123 3121 3122 3124 3121 3121 3119 3116 3121 3118 3119 3124 3126 3128 3131 3133
3076 3079 3084 3088 3092 3094 3095 3098 3099 3099 3100 3102 3103 3108 3107 3108 3108 3109 3110 3111 3114 3113 3115 3115 3112 3114 3117 3120 3118 3118 3118 3118 3118 3120 3116 3114 3110 3113 3112 3112 3116 3119 3121 3123 3125
3068 3073 3077 3080 3085 3086 3091 3093 3096 3094 3093 3098 3096 3099 3100 3104 3102 3104 3105 3107 3108 3109 3110 3110 3109 3108 3112 3114 3115 3115 3114 3114 3114 3113 3109 3106 3104 3106 3107 3104 3105 3109 3112 3113 3116
3063 3067 3070 3073 3078 3079 3082 3085 3088 3090 3088 3091 3090 3092 3096 3097 3097 3100 3100 3102 3103 3105 3103 3105 3102 3106 3107 3108 3109 3109 3109 3108 3109 3107 3104 3099 3092 3097 3098 3096 3096 3099 3101 3104 3108
3056 3061 3063 3066 3070 3073 3076 3081 3083 3084 3085 3083 3085 3083 3087 3089 3089 3093 3095 3095 3097 3100 3100 3100 3103 3099 3099 3102 3103 3104 3104 3104 3105 3102 3098 3095 3076 3085 3086 3085 3086 3088 3092 3094 3096
3048 3053 3056 3061 3067 3068 3069 3075 3079 3080 3081 3076 3077 3072 3077 3080 3079 3083 3086 3090 3090 3092 3097 3094 3093 3093 3095 3095 3099 3099 3103 3098 3097 3099 3094 3094 3067 3078 3081 3080 3078 3080 3082 3083 3085
3041 3045 3048 3052 3062 3062 3069 3071 3074 3077 3076 3072 3070 3068 3071 3075 3074 3075 3078 3078 3081 3086 3089 3091 3088 3087 3089 3091 3094 3093 3096 3094 3094 3092 3091 3090 3088 3068 3072 3074 3075 3075 3075 3077 3079
3033 3038 3042 3045 3049 3055 3060 3065 3070 3077 3071 3067 3064 3064 3067 3069 3069 3069 3073 3074 3074 3078 3082 3082 3085 3083 3087 3086 3088 3092 3092 3090 3090 3090 3083 3082 3082 3044 3066 3068 3069 3072 3072 3071 3072
3027 3031 3035 3037 3043 3049 3054 3061 3068 3069 3062 3060 3059 3062 3064 3064 3065 3066 3071 3073 3074 3075 3075 3077 3076 3077 3081 3083 3085 3087 3089 3086 3082 3081 3071 3071 3072 3058 3062 3063 3066 3068 3069 3067 3066
3020 3024 3027 3032 3037 3042 3049 3054 3056 3053 3055 3052 3055 3059 3062 3060 3064 3066 3066 3072 3071 3071 3072 3072 3073 3074 3074 3075 3079 3081 3083 3084 3076 3067 3063 3068 3061 3064 3061 3061 3062 3062 3062 3062 3060
3015 3020 3023 3026 3031 3037 3046 3047 3045 3048 3048 3050 3053 3056 3057 3059 3064 3066 3063 3065 3066 3067 3069 3070 3073 3073 3073 3074 3074 3076 3078 3080 3079 3077 3076 3065 3057 3060 3058 3057 3058 3057 3056 3055 3054
3009 3013 3018 3022 3025 3032 3038 3038 3041 3040 3043 3046 3049 3052 3055 3058 3062 3062 3061 3061 3063 3065 3064 3067 3070 3071 3072 3072 3071 3071 3073 3075 3075 3071 3061 3053 3055 3053 3055 3054 3052 3051 3050 3049 3048
3004 3007 3012 3016 3021 3027 3027 3029 3036 3038 3040 3043 3044 3048 3053 3055 3057 3057 3058 3060 3062 3062 3062 3065 3067 3068 3068 3068 3068 3067 3068 3070 3070 3067 3058 3054 3050 3053 3051 3049 3047 3048 3049 3046 3045
2994 3002 3005 3010 3018 3019 3021 3023 3028 3031 3035 3038 3041 3043 3048 3051 3054 3054 3055 3058 3058 3060 3062 3061 3062 3063 3063 3063 3064 3064 3064 3065 3064 3061 3058 3055 3049 3050 3048 3044 3044 3041 3040 3039 3037
2987 2994 3000 3006 3009 3011 3014 3017 3023 3027 3031 3034 3036 3039 3043 3048 3050 3049 3052 3054 3055 3056 3058 3058 3059 3057 3054 3059 3058 3059 3060 3061 3060 3058 3053 3053 3046 3044 3041 3039 3039 3032 3030 3026 3026
2985 2991 2995 3000 3002 3006 3009 3012 3016 3022 3026 3028 3031 3035 3038 3041 3043 3047 3049 3049 3049 3052 3053 3054 3055 3056 3053 3051 3054 3055 3054 3056 3055 3052 3047 3045 3041 3042 3034 3032 3033 3026 3020 3016 3014
2980 2984 2988 2993 2997 3001 3005 3009 3012 3017 3021 3024 3026 3029 3034 3037 3039 3042 3044 3045 3046 3046 3048 3051 3047 3048 3045 3044 3049 3048 3048 3045 3045 3044 3044 3038 3035 3034 3030 3026 3023 3017 3012 3009 3006
2978 2983 2987 2991 2995 2999 3000 3004 3009 3012 3019 3019 3021 3024 3027 3031 3034 3036 3035 3037 3040 3042 3042 3042 3042 3040 3037 3037 3040 3039 3036 3033 3036 3035 3034 3031 3027 3022 3023 3019 3014 3012 3008 3002 2999
2978 2981 2984 2988 2992 2995 2998 3003 3006 3010 3013 3014 3017 3020 3023 3026 3027 3029 3030 3032 3034 3036 3039 3038 3038 3037 3030 3034 3033 3031 3022 3025 3025 3026 3024 3022 3017 3017 3015 3013 3009 3006 3004 2999 2991
Wind_Speed
32 31 31 30 30 29 29 28 27 26 25 25 25 23 22 20 20 20 19 19 19 20 19 16 18 17 16 17 16 14 10 13 12 10 10 17 18 19 25 28 26 24 20 15 11
34 33 32 32 31 31 31 29 28 29 27 27 26 25 24 22 21 21 21 21 20 20 19 18 16 16 16 17 17 15 14 12 12 10 9 12 18 18 25 30 29 27 22 19 15
36 35 34 33 32 31 31 30 29 29 29 29 28 27 25 24 22 23 21 20 20 20 18 17 16 15 15 16 18 18 17 16 15 16 16 13 19 18 22 27 29 27 25 21 18
36 36 35 34 33 32 32 31 30 30 30 30 30 29 26 24 14 16 16 14 15 16 17 18 18 15 15 13 19 20 19 22 16 19 19 18 13 20 23 22 25 28 26 24 17
35 36 35 35 34 33 33 33 32 31 31 31 31 31 29 26 19 24 23 23 23 22 22 21 20 18 16 18 18 19 18 21 22 21 24 25 22 17 22 25 25 27 27 26 24
34 35 35 35 35 34 35 34 33 32 31 31 31 31 32 31 20 24 24 23 22 21 20 20 20 18 20 19 20 21 22 21 24 23 25 27 23 24 21 27 27 28 26 25 25
33 33 34 36 35 34 34 34 33 32 31 31 30 32 35 26 25 21 22 22 21 21 20 22 21 19 22 18 20 21 23 21 24 22 22 22 27 33 24 26 28 28 27 27 27
33 35 35 32 33 32 33 33 32 31 29 30 30 33 39 24 26 21 22 20 22 21 21 23 22 22 22 22 22 21 19 18 12 15 19 22 30 23 24 31 29 27 25 26 26
34 34 32 32 35 33 33 33 31 35 35 31 31 30 34 24 24 23 27 25 25 26 25 24 23 25 24 20 16 15 19 17 15 13 12 19 21 14 26 28 28 31 31 28 28
32 30 30 34 35 33 39 36 30 29 25 31 28 23 23 21 14 13 12 14 14 15 18 20 20 19 19 18 22 17 17 15 15 10 14 22 29 22 24 28 27 26 35 36 35
33 33 35 40 37 38 31 17 17 20 20 22 20 17 18 16 15 17 14 14 15 19 18 21 18 18 15 17 18 20 20 20 19 18 23 26 29 25 24 27 30 30 33 35 33
34 32 34 31 30 34 32 24 17 19 20 21 23 25 22 22 25 24 19 16 17 17 20 21 24 19 18 21 21 21 21 24 22 21 22 27 36 29 28 31 32 34 36 36 36
33 33 30 36 40 25 22 20 14 21 27 30 27 28 27 27 27 23 23 22 23 21 24 26 15 10 15 18 23 25 25 23 23 21 25 29 46 35 31 31 30 34 36 38 39
34 36 25 24 30 28 27 21 21 17 17 21 23 23 24 25 29 26 28 29 31 28 23 23 25 29 26 24 19 25 20 19 20 20 23 10 25 23 22 22 24 26 27 32 39
33 38 32 40 32 36 25 25 23 22 4 7 14 14 11 13 17 10 14 31 36 23 20 14 11 12 14 19 17 18 19 14 15 18 22 21 18 16 3 13 20 25 25 21 23
35 31 30 26 22 17 21 22 16 6 8 8 10 11 13 15 17 12 8 15 22 30 28 29 21 15 9 9 10 11 9 10 11 13 13 19 19 41 15 4 10 9 14 14 22
30 28 25 23 20 20 21 20 15 10 10 9 11 12 11 10 12 11 7 8 6 6 16 20 29 26 22 19 16 13 9 9 10 8 8 4 15 29 20 25 13 15 20 26 27
30 25 21 22 23 20 21 27 9 11 14 12 11 11 8 10 7 8 6 7 8 8 4 6 5 6 14 20 12 14 17 12 8 8 6 1 13 12 8 20 24 24 15 14 19
27 24 31 32 27 21 24 26 12 12 20 15 14 10 8 10 7 7 7 6 8 12 7 3 6 6 9 4 9 4 13 15 15 13 7 16 29 30 15 7 13 15 17 18 20
37 27 29 30 26 25 27 27 16 16 15 22 13 11 10 9 8 9 7 7 5 7 11 4 7 11 12 8 7 10 4 4 7 5 7 11 14 17 22 14 16 13 14 16 18
43 36 30 29 24 27 37 33 23 19 18 19 15 13 12 11 8 6 5 7 8 6 5 3 6 7 4 7 6 5 10 12 14 11 4 11 18 20 15 18 20 25 27 29 26
40 48 46 30 29 33 43 27 25 27 22 18 16 14 8 7 5 4 7 6 10 7 2 8 5 12 14 13 12 15 15 11 9 12 10 12 18 26 21 24 31 33 31 31 30
39 35 32 37 37 33 36 39 29 24 27 24 17 13 11 7 5 6 8 12 10 6 3 5 6 11 13 6 5 7 2 8 10 12 20 15 20 26 30 38 32 34 40 36 34
35 36 30 36 39 35 32 27 28 26 28 24 18 18 13 9 11 7 8 9 10 10 13 13 13 18 23 21 15 21 23 18 18 20 25 28 34 32 37 35 29 32 42 39 33
33 28 37 33 37 28 29 22 24 23 22 14 15 18 14 12 12 17 15 16 16 17 20 14 21 21 28 27 19 22 25 26 26 28 28 34 34 33 32 33 32 33 38 38 33
29 23 30 22 35 28 27 24 19 15 13 16 15 11 11 10 9 6 12 10 11 9 12 16 14 13 23 23 17 21 26 30 28 30 32 34 34 29 29 25 27 28 29 36 35
23 14 19 24 14 23 21 17 19 16 14 13 11 9 9 10 11 14 15 18 20 19 15 17 13 11 27 18 18 17 31 27 28 27 25 28 28 24 24 27 26 26 27 31 33
Wind_Direction
249 251 255 258 261 261 262 265 270 271 273 275 278 277 275 274 276 277 277 278 282 283 282 281 281 283 280 275 269 262 251 261 252 250 243 240 232 229 216 221 223 224 226 228 246
248 249 252 255 258 261 264 266 269 273 273 273 274 274 276 274 273 274 275 278 279 277 280 283 282 274 272 267 262 252 247 262 245 243 247 243 236 227 224 224 224 226 228 231 241
251 252 252 253 256 259 262 266 269 271 273 273 273 274 276 277 276 274 274 271 271 273 277 277 276 278 274 264 256 253 249 251 261 251 242 245 241 230 230 231 235 230 231 233 243
251 252 253 255 256 258 261 263 265 267 270 273 274 274 272 273 273 271 266 265 268 273 277 281 281 279 275 270 264 258 260 261 255 252 247 244 246 243 234 229 231 230 229 233 237
250 252 252 253 254 256 258 260 261 263 266 268 269 270 271 266 266 265 266 268 269 269 270 273 276 273 268 264 268 264 261 259 259 255 247 246 246 251 241 232 236 238 233 229 232
248 251 251 251 252 253 255 258 260 261 263 265 268 270 270 268 267 264 266 265 265 263 263 264 268 269 270 269 265 262 266 263 262 257 257 250 248 247 243 238 233 235 237 234 236
243 247 250 251 250 253 256 258 259 261 263 265 267 268 266 272 265 258 261 259 259 259 260 261 263 267 268 275 270 270 271 269 263 260 258 259 250 247 241 241 233 232 234 233 235
238 238 242 250 253 255 258 261 263 262 262 264 266 269 270 271 263 256 256 254 253 252 256 258 258 261 263 264 273 275 270 269 261 260 260 256 259 253 248 245 241 236 233 235 237
236 241 239 243 247 249 252 254 264 265 267 262 265 271 277 274 262 256 254 258 256 253 254 255 256 254 259 258 263 257 259 262 268 267 253 250 264 256 244 252 242 243 244 244 244
232 230 239 240 244 244 253 259 254 249 257 257 262 266 263 253 236 230 227 236 246 249 247 241 248 247 249 236 242 261 253 262 260 258 266 260 262 260 256 255 255 243 252 253 254
234 248 248 237 235 241 239 224 244 256 247 252 237 251 266 245 222 219 248 242 258 246 238 246 241 231 248 250 255 261 262 261 261 265 277 269 268 263 253 261 251 243 248 250 250
241 246 235 236 215 234 231 253 236 255 264 253 252 259 266 255 250 253 248 246 252 249 239 245 243 243 255 256 259 254 259 264 276 272 268 279 276 270 262 254 253 257 255 250 247
237 240 218 229 228 238 226 222 237 253 259 264 258 260 258 258 261 255 247 248 253 246 246 245 242 261 257 259 255 256 256 266 271 276 279 288 281 277 271 270 255 263 259 259 253
224 232 239 246 228 221 212 216 229 239 252 264 263 257 249 248 253 252 244 242 247 250 244 260 258 255 258 257 251 259 266 267 270 274 273 288 288 276 269 265 253 267 266 262 256
249 235 266 273 252 273 252 235 238 243 279 250 230 235 222 218 230 230 232 231 235 238 233 239 258 256 247 248 249 263 252 265 266 263 273 260 273 288 240 276 271 270 285 277 267
253 249 246 232 231 221 215 229 237 195 240 234 218 215 222 222 236 231 215 222 236 233 238 246 253 250 250 244 255 256 263 258 258 258 259 250 235 284 284 13 329 280 280 301 274
228 223 219 212 215 214 216 206 171 207 222 215 214 210 214 216 232 236 235 238 207 193 236 252 253 250 252 255 258 247 246 252 232 211 248 243 222 246 288 302 303 309 294 291 283
218 215 215 210 209 199 193 179 195 214 205 205 188 190 179 188 198 208 188 220 222 212 271 249 220 208 217 229 228 233 227 235 259 252 256 176 245 245 312 309 306 298 297 286 280
205 207 196 201 195 201 188 190 210 218 205 186 165 168 167 180 164 156 164 175 209 211 206 235 231 182 150 200 190 219 227 247 252 269 286 255 267 282 297 1 338 330 292 276 269
189 199 209 215 198 215 200 210 221 213 198 201 190 175 179 168 169 172 170 162 162 210 209 239 254 236 241 246 242 223 221 223 195 233 234 238 252 273 301 323 320 312 302 279 275
192 192 189 178 208 202 206 215 222 212 198 185 192 181 178 173 154 147 149 160 179 167 126 207 231 215 244 237 226 249 249 246 256 245 273 281 272 282 312 313 316 304 285 292 289
202 204 211 219 207 213 207 206 210 215 201 196 195 199 177 197 221 222 212 199 200 215 271 269 262 264 265 250 272 268 261 254 251 266 258 276 273 279 292 304 316 304 297 288 286
195 198 207 203 200 205 212 221 216 209 207 209 209 209 230 220 227 217 213 235 239 242 228 258 265 294 283 241 207 198 225 287 268 263 264 275 274 285 296 300 309 302 307 296 281
192 193 187 190 203 206 202 187 193 202 212 217 224 235 245 240 240 225 217 255 249 249 263 271 254 248 257 263 287 281 280 275 263 263 271 268 281 288 296 299 300 302 301 304 288
186 191 198 207 212 215 212 214 208 213 220 231 247 250 239 237 238 240 244 251 268 261 269 258 259 258 268 269 265 264 265 262 256 260 264 278 279 280 284 290 291 290 294 304 298
190 202 202 207 217 207 203 211 230 228 220 214 215 211 212 221 220 230 235 249 223 248 245 243 255 257 264 267 267 267 265 262 259 260 265 268 273 289 284 287 288 293 301 303 308
184 180 184 194 189 201 214 200 195 196 192 190 184 204 215 228 248 249 252 251 253 249 249 253 255 268 270 272 284 265 264 267 265 259 262 268 283 286 284 287 288 292 298 298 299